SCP
1 1 0 0 0 0 0 0 0 0 0 0 0 0 0 0 0 0 0 0 0 0 0 0 0 0 0 0 0 0 0 0 0 0 0 0 0 0 0 0 0 0 0
1 1 0 0 0 0 0 0 0 0 0 0 0 0 0 0 0 0 0 0 0 0 0 0 0 0 0 0 0 0 0 0 0 0 0 0 0 0 0 0 0 0 0
1 0 0 0 0 0 0 0 0 0 0 0 0 0 0 0 0 0 0 0 0 0 0 0 0 0 0 0 0 0 0 0 0 0 0 0 0 0 0 0 0 0 0
1 0 0 0 0 0 0 0 0 0 0 0 0 0 0 0 0 0 0 0 0 0 0 0 0 0 0 0 0 0 0 0 0 0 0 0 0 0 0 0 0 0 0
0 0 0 0 0 0 0 0 0 0 0 0 0 0 0 0 0 0 0 0 0 0 0 0 0 0 0 0 0 0 0 0 0 0 0 0 0 0 0 0 0 0 0
1 1 1 1 0 0 0 0 0 0 0 0 0 0 0 0 0 0 0 0 0 0 0 0 0 0 0 0 0 0 0 0 0 0 0 0 0 0 0 0 0 0 0
1 1 1 1 1 0 0 0 0 0 0 0 0 0 0 0 0 0 0 0 0 0 0 0 0 0 0 0 0 0 0 0 0 0 0 0 0 0 0 0 0 0 0
1 1 1 1 1 0 0 0 0 0 0 0 0 0 0 0 0 0 0 0 0 0 0 0 0 0 0 0 0 -0 0 0 0 0 0 0 0 0 0 0 0 0 0
1 1 1 1 1 0 0 0 0 0 0 0 0 0 0 0 0 0 0 0 0 0 0 0 0 0 0 0 0 -0 0 0 0 0 0 0 0 0 0 0 0 0 0
1 1 1 1 0 0 0 0 0 0 0 0 0 0 0 0 0 0 0 0 0 0 0 0 0 0 0 0 0 0 0 0 0 0 0 0 0 0 0 0 0 0 0
1 1 0 0 0 0 0 0 0 0 0 0 0 0 0 0 0 0 0 0 0 0 0 0 0 0 0 0 0 0 0 0 0 0 0 0 0 0 0 0 0 0 0
1 1 0 0 0 0 0 0 0 0 0 0 0 0 0 0 0 0 0 0 0 0 0 0 0 0 0 0 0 0 0 0 0 0 0 0 0 0 0 0 0 0 0
1 1 1 0 0 0 0 0 0 0 0 0 0 0 0 0 0 0 0 0 0 0 0 0 0 0 0 0 0 0 0 0 0 0 0 0 0 0 0 0 0 0 0
1 1 1 0 0 0 0 0 0 0 0 0 0 0 0 0 0 0 0 0 0 0 0 0 0 0 0 0 0 0 0 0 0 0 0 0 0 0 0 0 0 0 0
1 1 1 0 0 0 0 0 0 0 0 0 0 0 0 0 0 0 0 0 0 0 0 0 0 0 0 0 0 0 0 0 0 0 0 0 0 0 0 0 0 0 0
1 1 1 0 0 0 0 0 0 0 0 0 0 0 0 0 0 0 0 0 0 0 0 0 0 0 0 0 0 0 0 0 0 0 0 0 0 0 0 0 0 0 0
1 1 1 0 0 0 0 0 0 0 0 0 0 0 0 0 0 0 0 0 0 0 0 0 0 0 0 0 0 0 0 0 0 0 0 0 0 0 0 0 0 0 0
0 0 0 0 0 0 0 0 0 0 0 0 0 0 0 0 0 0 0 0 0 0 0 0 0 0 0 0 0 0 0 0 0 0 0 0 0 0 0 0 0 0 0
0 0 0 0 1 1 1 1 0 0 0 0 0 0 0 0 0 0 0 0 0 0 0 0 0 0 0 0 0 0 0 0 0 0 0 0 0 0 0 0 0 0 0
0 0 0 0 1 1 1 1 1 1 0 0 0 0 0 0 0 0 0 0 0 0 0 0 0 0 0 0 0 0 0 0 0 0 0 0 0 0 0 0 0 0 0
0 0 0 0 0 1 1 1 1 1 1 1 0 0 0 0 0 0 0 0 0 0 0 0 0 0 0 0 0 0 0 0 0 0 0 0 0 0 0 0 0 0 0
0 0 0 0 0 0 1 1 1 1 1 1 1 0 0 0 0 0 0 0 0 0 0 0 0 0 0 0 0 0 0 0 0 0 0 0 0 0 0 0 0 0 0
0 0 0 0 0 0 0 1 1 1 1 1 1 1 0 0 0 0 1 0 0 0 0 0 0 0 0 0 0 0 0 0 0 0 0 0 0 0 0 0 0 0 0
0 0 0 0 0 0 0 0 0 1 1 1 1 0 0 0 0 0 0 0 1 0 0 0 0 0 0 0 0 0 0 0 0 0 0 0 0 0 0 0 0 0 0
0 0 0 0 0 0 0 0 0 0 0 0 0 0 0 0 0 0 0 0 0 0 0 0 0 0 0 0 0 0 0 0 0 0 0 0 0 0 0 0 0 0 0
0 0 0 0 0 0 0 0 0 0 0 0 0 0 0 0 0 0 0 0 0 0 0 0 0 0 0 0 0 0 0 0 0 0 0 0 0 0 0 0 0 0 0
Wind_Speed
12 15 17 17 16 15 15 14 13 13 13 12 12 12 11 11 10 10 9 9 9 9 10 12 13 13 14 13 13 13 13 13 12 13 13 12 12 11 12 12 11 9 13
15 16 17 17 16 15 15 14 13 12 12 12 12 12 11 10 9 8 8 7 8 9 11 12 13 14 13 13 13 12 11 10 9 10 10 9 9 10 12 13 12 7 11
17 16 16 16 16 15 15 14 13 13 12 12 12 11 9 8 8 7 7 7 9 10 11 13 14 13 13 13 12 11 10 7 6 3 2 4 7 10 11 11 11 10 10
16 15 15 16 16 16 16 15 14 13 13 12 11 10 9 8 7 7 7 9 10 11 12 14 14 13 12 12 11 10 7 4 2 3 1 5 6 9 10 11 12 11 11
14 13 16 16 16 16 16 15 14 13 13 12 11 10 8 8 7 8 9 10 11 11 13 13 13 12 11 11 10 8 5 3 5 3 6 7 6 10 11 12 12 13 13
13 13 15 15 16 16 15 14 14 13 12 11 10 9 9 9 9 10 10 11 11 11 12 13 12 11 10 10 9 6 3 4 6 4 7 7 5 11 13 13 13 14 14
13 14 14 14 16 16 15 14 14 13 13 11 10 9 9 9 10 11 11 11 11 11 12 12 11 10 9 9 7 4 4 6 2 6 7 7 8 13 14 14 14 15 15
14 14 13 14 15 15 15 14 13 13 12 11 10 9 9 10 10 10 10 10 11 11 11 11 10 10 9 8 6 3 4 7 4 8 7 6 10 13 14 14 14 14 14
14 13 11 10 12 14 14 13 13 12 11 10 10 9 9 9 9 9 9 10 11 11 11 10 10 9 8 7 5 2 3 6 3 4 8 5 10 12 13 13 13 13 13
11 12 11 10 9 9 9 12 12 12 11 10 9 9 10 9 8 8 7 8 10 11 10 9 9 8 7 6 4 1 3 5 1 5 5 6 11 11 12 11 12 12 12
9 10 10 10 9 9 9 10 10 10 10 10 8 10 9 6 6 5 7 9 9 10 9 9 8 8 6 5 4 3 3 3 1 5 5 9 10 10 10 10 11 11 11
6 8 8 9 8 8 8 8 6 7 7 6 6 7 5 5 5 7 10 9 9 8 8 8 8 7 5 4 4 4 3 4 3 5 6 11 10 10 10 10 10 10 10
4 4 5 6 7 7 6 7 4 4 6 6 7 8 5 4 5 6 4 5 5 6 5 5 5 4 5 4 5 4 4 2 2 5 6 11 10 10 10 9 9 9 9
6 5 4 4 5 5 6 5 4 4 5 4 6 9 5 3 4 5 4 5 5 4 4 5 4 6 5 5 6 6 4 1 2 4 6 11 11 10 10 9 9 8 8
8 8 6 4 4 4 5 4 4 4 5 5 4 6 6 4 4 4 4 5 6 5 5 5 5 5 5 4 4 3 3 3 4 6 5 10 11 11 10 9 9 9 8
7 8 7 6 5 4 4 4 3 3 4 4 4 5 6 4 4 4 4 4 5 4 5 5 5 4 4 3 4 3 3 3 3 6 6 7 11 11 11 10 10 9 8
7 7 8 8 7 6 5 4 3 3 3 4 4 6 6 6 6 5 4 4 4 4 5 4 5 3 3 3 3 4 3 4 4 5 7 5 6 9 11 11 11 10 9
5 7 8 8 8 8 6 4 3 3 3 4 4 5 7 7 6 5 4 4 5 4 4 4 3 3 3 3 3 3 3 3 4 5 6 7 6 5 7 11 11 11 10
5 6 7 8 8 8 7 5 5 4 4 3 3 4 6 7 7 6 5 4 5 4 4 4 4 4 4 4 3 3 3 3 3 3 5 7 7 7 5 8 10 10 11
2 2 4 6 7 7 6 5 4 5 4 3 3 4 5 6 7 7 5 6 6 4 5 4 5 4 4 5 4 3 3 3 3 4 4 4 6 8 8 7 6 7 11
1 1 2 2 4 5 5 5 5 5 5 5 5 5 6 6 7 7 6 6 6 6 6 6 5 6 4 4 3 2 2 2 4 4 4 4 5 6 7 8 6 5 5
1 1 1 2 2 2 3 4 4 4 5 6 5 7 7 7 7 6 7 6 7 6 7 8 6 5 5 5 4 3 2 3 5 5 4 5 5 5 6 8 8 7 6
3 2 2 2 2 1 1 1 1 2 2 3 5 6 7 8 8 7 7 7 6 7 6 8 7 8 6 6 5 5 5 6 3 3 6 5 4 4 5 5 6 7 8
3 3 3 3 3 3 2 1 1 2 3 4 4 4 6 8 9 9 9 8 7 6 7 8 8 7 7 6 5 4 3 3 4 2 2 2 4 4 4 4 4 5 6
3 3 3 3 3 3 3 2 2 2 3 2 2 4 5 5 7 9 9 8 8 7 8 8 8 8 8 7 6 4 5 3 2 4 3 2 2 2 2 3 3 3 4
3 3 2 2 2 3 3 3 3 3 3 3 4 4 4 3 4 6 7 8 8 8 8 9 9 9 9 9 7 6 5 5 5 5 4 3 3 2 1 1 2 2 3
Wind_Direction
127 138 147 144 142 141 138 138 136 135 132 128 123 117 112 107 104 101 99 98 97 97 99 96 94 90 85 83 82 81 80 81 84 83 77 72 72 70 58 53 72 67 66
130 139 146 143 143 141 138 134 130 128 127 126 121 116 111 107 103 101 100 103 104 102 103 100 97 91 88 86 85 85 86 92 98 100 98 83 71 68 63 60 64 66 66
130 139 145 141 143 141 136 131 129 128 126 123 120 116 110 107 106 103 104 111 109 106 106 104 97 93 89 87 86 87 90 95 95 97 122 109 85 73 70 67 68 67 64
130 141 145 140 142 141 136 134 132 129 126 123 119 115 112 111 108 106 108 115 110 106 107 106 100 96 92 90 88 89 91 85 41 322 91 95 82 78 75 72 69 66 64
132 142 136 140 141 139 137 135 133 131 127 123 119 115 115 112 108 108 110 113 110 107 110 109 105 100 96 93 91 90 83 30 354 356 71 75 74 77 76 72 68 67 66
134 130 135 139 140 138 137 137 136 132 128 125 121 119 118 115 109 106 109 113 113 111 114 114 109 104 100 98 94 87 48 359 333 59 73 74 75 79 78 76 73 71 68
130 126 139 137 141 141 140 140 138 135 132 129 127 124 123 120 112 109 110 115 119 119 119 118 114 109 104 100 96 76 8 342 327 79 76 72 75 80 79 77 75 73 71
122 127 137 138 141 143 143 142 140 138 136 135 134 128 123 119 116 116 115 119 124 124 124 123 119 115 109 105 98 63 354 340 45 94 89 79 83 84 82 80 77 76 73
121 127 136 142 143 144 143 143 143 141 140 140 137 128 120 117 119 121 119 124 129 129 127 126 125 123 118 114 108 73 336 336 359 93 99 89 91 88 87 84 82 80 77
124 133 143 147 147 146 145 146 145 144 143 142 133 124 122 122 126 128 127 127 131 132 131 132 133 132 128 127 128 148 300 316 288 99 99 101 99 96 93 89 87 84 81
130 138 147 151 155 154 154 149 144 146 148 144 137 138 141 150 148 148 135 128 134 138 141 144 143 141 139 143 155 201 270 269 117 102 102 112 109 106 102 98 94 91 87
132 140 151 155 157 159 154 149 158 160 156 167 159 161 183 183 163 150 135 139 144 147 150 155 155 158 166 169 182 206 247 241 144 117 125 126 121 118 113 108 104 100 95
152 141 151 155 156 154 143 157 166 166 165 190 173 174 200 183 138 132 141 140 148 158 165 160 166 199 210 187 175 203 233 227 131 122 135 135 134 131 126 120 116 111 106
172 170 162 158 156 158 153 166 167 167 167 183 182 176 190 167 154 157 162 167 174 182 182 174 196 213 214 187 182 198 195 169 107 116 140 141 144 144 140 135 132 126 119
174 173 175 179 179 177 168 171 176 175 172 180 180 179 178 164 170 178 179 172 180 183 183 185 206 206 197 196 199 191 166 170 139 127 140 148 150 154 154 152 149 143 135
173 173 175 186 195 192 188 177 185 182 172 178 171 186 184 175 180 184 188 178 183 186 176 185 204 202 186 189 192 182 168 166 152 138 144 153 159 163 166 167 164 158 151
177 176 178 185 191 196 205 196 193 195 182 187 179 188 192 190 185 185 189 185 187 187 183 183 203 198 183 181 189 188 181 182 171 151 151 155 161 170 176 179 175 170 165
178 182 183 187 189 194 198 198 199 211 205 195 189 188 196 198 190 187 192 196 190 186 187 185 192 185 180 174 184 199 183 172 181 174 162 160 163 170 183 186 182 180 176
189 190 188 185 188 192 192 192 199 211 221 214 204 197 198 201 198 191 195 201 195 192 190 187 186 178 179 184 192 194 191 180 197 191 176 169 166 165 168 184 179 180 181
187 202 195 190 190 190 188 190 192 204 218 223 224 220 210 203 202 198 197 204 201 196 195 189 187 188 183 180 185 188 199 190 191 197 198 180 167 165 163 165 164 176 181
135 239 241 216 202 190 186 188 192 202 208 214 222 229 229 223 212 205 202 203 206 205 199 193 185 194 199 167 148 193 247 217 204 204 200 190 178 171 163 166 168 167 181
50 284 271 256 240 221 197 196 197 199 206 209 211 220 224 228 230 222 211 207 207 210 206 200 192 186 193 176 156 144 216 254 249 216 199 200 191 176 176 173 172 169 173
44 16 354 337 321 285 264 222 222 202 206 208 212 214 217 219 223 226 225 218 212 211 215 210 200 193 198 198 180 167 179 210 217 226 212 199 190 179 182 175 174 170 167
55 23 358 342 336 334 329 285 243 226 223 224 220 219 216 214 217 220 221 219 219 218 218 216 211 204 192 199 211 219 207 169 164 200 254 212 191 185 182 183 177 168 160
68 38 3 350 349 348 345 331 286 267 258 264 262 252 240 226 221 219 218 217 220 222 222 219 216 213 206 200 194 194 218 233 195 158 201 223 216 204 177 171 165 160 155
77 50 11 359 3 4 354 341 322 295 289 292 286 278 268 255 237 226 222 220 220 221 222 222 221 218 215 211 204 195 184 190 197 186 180 180 200 212 140 114 137 143 141